Total_Precipitation_Accumulation
0.39 0.42 0.44 0.42 0.42 0.44 0.48 0.58 0.65 0.56 0.40 0.29 0.25 0.21 0.19 0.16 0.13 0.12 0.08 0.06 0.06 0.07 0.09 0.11 0.13 0.17 0.22 0.28 0.35 0.44 0.52 0.59 0.66 0.75 0.84 0.95 1.07 1.18
0.30 0.34 0.37 0.39 0.41 0.44 0.47 0.51 0.59 0.64 0.50 0.31 0.25 0.22 0.21 0.17 0.14 0.14 0.10 0.10 0.10 0.11 0.12 0.14 0.16 0.19 0.23 0.27 0.33 0.39 0.45 0.51 0.59 0.68 0.78 0.87 0.97 1.10
0.23 0.27 0.32 0.36 0.39 0.41 0.44 0.47 0.50 0.56 0.53 0.35 0.27 0.25 0.23 0.18 0.14 0.14 0.12 0.11 0.10 0.13 0.17 0.21 0.25 0.27 0.29 0.31 0.34 0.36 0.40 0.45 0.53 0.63 0.73 0.83 0.90 0.95
0.17 0.20 0.24 0.28 0.32 0.37 0.41 0.41 0.41 0.43 0.49 0.41 0.26 0.21 0.18 0.16 0.14 0.13 0.13 0.15 0.14 0.14 0.20 0.26 0.32 0.35 0.34 0.33 0.34 0.36 0.38 0.41 0.45 0.50 0.57 0.64 0.74 0.83
0.17 0.22 0.27 0.31 0.35 0.37 0.39 0.38 0.37 0.37 0.43 0.45 0.28 0.20 0.18 0.15 0.15 0.13 0.14 0.16 0.15 0.16 0.20 0.23 0.26 0.30 0.33 0.35 0.36 0.36 0.37 0.38 0.41 0.44 0.47 0.52 0.59 0.68
0.22 0.26 0.28 0.29 0.29 0.29 0.29 0.30 0.33 0.34 0.34 0.38 0.33 0.25 0.21 0.16 0.17 0.16 0.16 0.15 0.17 0.20 0.22 0.24 0.26 0.28 0.29 0.30 0.30 0.30 0.31 0.34 0.41 0.51 0.57 0.61 0.62 0.64
0.30 0.29 0.27 0.25 0.22 0.20 0.22 0.24 0.26 0.30 0.36 0.44 0.41 0.32 0.24 0.21 0.19 0.20 0.25 0.24 0.23 0.21 0.23 0.23 0.27 0.32 0.34 0.38 0.39 0.39 0.39 0.45 0.55 0.65 0.73 0.77 0.78 0.78
0.29 0.25 0.22 0.19 0.16 0.16 0.17 0.18 0.25 0.34 0.43 0.49 0.47 0.39 0.28 0.28 0.31 0.39 0.45 0.51 0.44 0.27 0.33 0.39 0.44 0.51 0.52 0.53 0.58 0.60 0.60 0.63 0.67 0.72 0.76 0.78 0.79 0.83
0.21 0.18 0.15 0.12 0.12 0.09 0.09 0.13 0.17 0.25 0.35 0.38 0.35 0.25 0.23 0.24 0.38 0.50 0.54 0.59 0.52 0.38 0.45 0.52 0.49 0.51 0.51 0.54 0.62 0.62 0.58 0.57 0.58 0.62 0.66 0.69 0.69 0.72
0.09 0.07 0.06 0.05 0.05 0.09 0.15 0.19 0.13 0.10 0.11 0.13 0.14 0.14 0.19 0.25 0.40 0.59 0.66 0.67 0.53 0.42 0.41 0.48 0.41 0.39 0.38 0.40 0.47 0.49 0.46 0.47 0.50 0.54 0.56 0.58 0.57 0.59
0.04 0.03 0.04 0.04 0.05 0.17 0.26 0.25 0.14 0.05 0.04 0.07 0.13 0.14 0.17 0.20 0.28 0.49 0.68 0.78 0.64 0.37 0.31 0.38 0.38 0.38 0.36 0.33 0.36 0.42 0.42 0.43 0.44 0.45 0.47 0.49 0.51 0.56
0.04 0.03 0.03 0.05 0.12 0.24 0.26 0.24 0.13 0.05 0.08 0.07 0.06 0.05 0.04 0.06 0.16 0.36 0.75 1.12 0.91 0.58 0.32 0.42 0.47 0.53 0.63 0.36 0.31 0.35 0.35 0.34 0.34 0.35 0.36 0.39 0.43 0.47
0.06 0.03 0.02 0.08 0.19 0.23 0.19 0.09 0.10 0.18 0.15 0.06 0.05 0.04 0.04 0.04 0.08 0.16 0.42 1.03 1.33 0.95 0.48 0.75 0.88 0.63 0.72 0.48 0.31 0.32 0.34 0.39 0.42 0.39 0.38 0.39 0.41 0.48
0.08 0.05 0.06 0.14 0.16 0.11 0.05 0.05 0.12 0.13 0.05 0.05 0.06 0.06 0.08 0.11 0.15 0.21 0.27 0.44 0.78 0.98 0.72 0.91 1.22 0.85 0.86 0.64 0.38 0.34 0.38 0.52 0.67 0.64 0.57 0.55 0.48 0.48
0.09 0.12 0.14 0.11 0.06 0.02 0.03 0.05 0.06 0.05 0.09 0.16 0.15 0.13 0.15 0.22 0.28 0.32 0.32 0.35 0.41 0.49 0.54 0.63 0.91 0.91 0.94 0.84 0.57 0.45 0.52 0.59 0.77 0.95 0.90 0.74 0.56 0.48
0.12 0.12 0.07 0.03 0.02 0.02 0.02 0.02 0.03 0.07 0.19 0.26 0.22 0.17 0.18 0.25 0.31 0.40 0.52 0.54 0.58 0.54 0.50 0.49 0.60 0.82 0.83 0.60 0.67 0.63 0.68 0.91 0.99 1.17 1.13 0.87 0.65 0.52
0.14 0.05 0.01 0.01 0.02 0.02 0.01 0.01 0.03 0.06 0.13 0.18 0.24 0.26 0.25 0.33 0.42 0.54 0.70 0.77 0.80 0.69 0.57 0.43 0.37 0.42 0.53 0.57 0.58 0.53 0.66 0.90 1.11 1.22 1.18 1.01 0.80 0.64
0.07 0.02 0.02 0.03 0.04 0.04 0.04 0.05 0.04 0.08 0.17 0.28 0.31 0.35 0.41 0.49 0.58 0.65 0.78 0.87 0.81 0.65 0.53 0.41 0.34 0.31 0.27 0.28 0.43 0.64 0.75 0.94 1.09 1.08 0.94 0.90 0.89 0.72
0.03 0.04 0.05 0.05 0.05 0.06 0.09 0.12 0.13 0.14 0.27 0.41 0.49 0.52 0.58 0.62 0.70 0.76 0.78 0.75 0.63 0.50 0.41 0.35 0.38 0.55 0.52 0.33 0.27 0.55 0.95 1.05 0.95 0.88 0.76 0.72 0.84 0.73
0.04 0.06 0.06 0.06 0.07 0.10 0.14 0.21 0.25 0.26 0.35 0.47 0.56 0.61 0.67 0.75 0.79 0.77 0.71 0.65 0.56 0.40 0.25 0.17 0.24 0.55 0.88 0.80 0.63 0.61 0.74 0.95 0.97 0.87 0.66 0.58 0.65 0.62
0.05 0.05 0.05 0.07 0.11 0.14 0.18 0.25 0.35 0.44 0.52 0.64 0.67 0.70 0.75 0.85 0.82 0.70 0.56 0.42 0.34 0.27 0.20 0.13 0.16 0.31 0.52 0.56 0.51 0.53 0.65 0.75 0.86 1.01 0.88 0.70 0.55 0.49
0.05 0.05 0.05 0.07 0.13 0.18 0.23 0.31 0.41 0.47 0.56 0.65 0.70 0.71 0.74 0.80 0.73 0.53 0.36 0.28 0.22 0.20 0.18 0.12 0.09 0.11 0.23 0.43 0.47 0.44 0.48 0.49 0.44 0.41 0.58 0.83 1.06 1.16
0.07 0.08 0.08 0.10 0.15 0.21 0.28 0.34 0.44 0.52 0.60 0.70 0.72 0.68 0.64 0.55 0.39 0.29 0.24 0.23 0.22 0.19 0.15 0.11 0.07 0.09 0.16 0.27 0.36 0.37 0.36 0.33 0.27 0.30 0.49 0.55 0.70 0.92